AKST,Max TemperatureF,Mean TemperatureF,Min TemperatureF,Max Dew PointF,MeanDew PointF,Min DewpointF,Max Humidity, Mean Humidity, Min Humidity, Max Sea Level PressureIn, Mean Sea Level PressureIn, Min Sea Level PressureIn, Max VisibilityMiles, Mean VisibilityMiles, Min VisibilityMiles, Max Wind SpeedMPH, Mean Wind SpeedMPH, Max Gust SpeedMPH,PrecipitationIn, CloudCover, Events, WindDirDegrees
2013-1-1,35,32,28,30,27,25,93,85,73,29.08,28.88,28.70,10,5,0,29,14,33,0.01,8,,222
2013-1-2,39,32,26,30,26,21,86,72,59,29.10,28.95,28.82,10,10,8,33,13,44,0.03,5,,114
2013-1-3,37,34,30,28,27,25,86,72,52,29.39,29.13,28.86,10,10,3,29,20,38,0.00,1,,144
2013-1-4,35,30,24,30,25,19,93,79,65,29.50,29.40,29.19,10,8,2,43,12,47,0.01,4,,144
2013-1-5,36,28,21,28,24,16,86,75,56,29.28,29.20,29.11,10,10,2,45,26,56,0.02,3,,165
2013-1-6,32,29,26,28,25,18,93,81,64,29.22,28.92,28.77,10,7,1,29,15,34,0.01,7,,17
2013-1-7,30,29,28,27,24,19,93,80,66,29.77,29.36,28.95,10,7,1,28,16,33,0.02,7,,298
2013-1-8,30,24,17,25,18,9,86,71,51,30.11,30.02,29.79,10,10,7,22,14,28,0.08,4,,258
2013-1-9,39,34,28,30,27,14,87,72,51,30.01,29.79,29.59,10,10,9,34,17,43,0.02,6,,157
2013-1-10,39,32,24,30,25,19,87,72,49,29.92,29.75,29.51,10,9,1,44,13,58,0.08,2,,133
2013-1-11,39,32,24,28,23,19,93,73,40,30.05,29.88,29.60,10,10,7,41,12,54,0.06,4,,156
2013-1-12,46,42,39,36,32,28,71,65,57,29.57,29.42,29.30,10,10,10,44,35,54,0.01,2,,144
2013-1-13,46,40,35,36,33,28,93,74,50,29.53,29.42,29.22,10,10,9,36,23,45,0.02,4,,134
2013-1-14,42,32,23,30,25,16,86,77,61,30.09,29.76,29.21,10,10,1,30,18,43,0.12,5,,205
2013-1-15,39,32,24,30,25,18,93,76,55,30.17,30.14,30.10,10,10,1,14,8,,0.04,7,,142
2013-1-16,33,25,17,27,15,5,93,71,51,30.19,30.10,30.01,10,9,1,17,12,22,0.02,8,,345
2013-1-17,15,10,6,10,2,-4,86,63,46,30.08,30.04,30.00,10,10,10,24,13,28,0.03,6,,59
2013-1-18,37,22,8,25,13,-2,80,68,52,30.00,29.85,29.67,10,10,10,28,16,37,1.18,7,,56
2013-1-19,44,28,12,32,29,25,70,63,44,29.66,29.31,29.10,10,10,7,38,25,50,2.52,6,,116
2013-1-20,42,38,35,30,28,25,75,63,49,29.50,29.44,29.20,10,10,10,39,26,47,1.18,3,,135
2013-1-21,42,38,33,34,29,23,87,73,49,29.49,29.38,29.29,10,10,10,24,12,32,0.98,7,,55
2013-1-22,35,32,30,30,28,25,93,85,72,29.38,29.33,29.28,10,4,0,9,4,,0.71,8,,207
2013-1-23,32,28,24,28,26,19,93,86,80,29.28,29.22,29.18,10,5,0,5,0,,0.03,8,,200
2013-1-24,30,28,26,25,22,18,93,80,64,29.71,29.50,29.28,10,10,4,0,0,,0.04,8,,-1
2013-1-25,26,16,5,21,11,-4,92,75,61,29.97,29.83,29.71,10,9,5,16,9,,0.06,7,,48
2013-1-26,10,6,3,-2,-7,-15,67,52,33,30.12,30.05,29.97,10,10,10,22,16,28,0.01,0,,42
2013-1-27,10,5,0,1,-7,-13,72,57,44,30.17,30.11,29.92,10,9,4,31,18,37,0.02,2,,45
2013-1-28,39,18,-2,27,14,-11,100,67,55,29.91,29.38,29.04,10,7,0,40,23,54,0.02,8,,91
2013-1-29,44,42,39,36,32,27,76,66,54,29.34,29.20,29.05,10,10,10,41,30,53,0.20,2,,143
2013-1-30,44,37,30,34,31,25,87,81,65,29.74,29.46,29.31,10,8,0,22,9,28,0.12,8,,204
2013-1-31,32,29,26,28,25,19,93,83,70,29.80,29.74,29.65,10,8,0,18,9,23,0.05,5,,36